FENGYUN 1C DEB, 32342

Orbit data source: Space-Track

FENGYUN 1C DEB, 32342 is space debris in SSO originally from a launch on Mon, 10 May 1999 UTC launched from the Taiyaun Space Center, China (TSC). Fengyun 1C debris stems from the Chinese weather satellite Fengyun-1C, which was intentionally destroyed by a Chinese anti-satellite missile in 2007. This event dramatically increased the amount of space debris, with thousands of trackable fragments posing hazards to satellites and human spaceflight. The Fengyun 1C debris cloud has become a focal point in discussions about space sustainability and the need for international regulations to prevent the creation of new debris.

Loading next visibility...
Identifier
32342, 1999-025CYK
Orbit
SSO
Country
Flag of CNCN / PRC
Related business
Manufacturer
Unknown
Mission
Spacecraft
Bus & Motor
Unknown
Mass
Unknown
Launch date (UTC)
1999-05-10 (27 years ago)
Launch vehicle
Unknown
Launch site
Taiyaun Space Center, China (TSC)
Object type
Payload
Rocket body
Debris
Shape & HBR
Unknown shape, 0.1 m
Radar Cross Section
Small (<0.1 m²)

Expand to show TLE details & history
Last TLE update: 1 day ago

TLE from 1 day ago
0 FENGYUN 1C DEB
1 32342U 99025CYK 25347.56508683  .00000240  00000-0  15017-3 0  9994
2 32342  98.6704 356.1462 0007467 349.0639 132.7952 14.13399152937292
Epoch: 2025-12-13T13:33Z
TLE epoch observation values (Epoch: 2025-12-13T13:33:43.502Z)
Latitude
57.14099°
Longitude
-96.19317°
Altitude
860.981 km
Speed
7.426 km/s
True Right ascension
12h 38m 54s
True Declination
56° 59' 11"
Sunlit
Object was in daylight at epoch
Visualization orbit readout
Latitude
Unknown
Longitude
Unknown
Altitude
Unknown
Speed
Unknown
Apparent Right ascension
Unknown
Apparent Declination
Unknown
Sunlit
N/A
Visualization observer readout
Local Sidereal Time
18:04:35
Azimuth
Unknown
Elevation
Unknown
Doppler factor
Unknown
Orbital elements
Apogee altitude
850.322 km
Perigee altitude
839.535 km
Semi-major axis
7,223.066 km
Eccentricity
0.00075
Inclination
98.6704°
RAAN
356.1462°
Arg. of periapsis
349.0639°
True anomaly
132.85795°
Mean anomaly
132.7952°
Eccentric anomaly
132.82658°
Mean motion
3.53558 °/min
Orbital period
101.82 mins
BSTAR
0.00015017
Loading maneuver chart data...
Computing Atmospheric mass density...

Documentation

Showing up to 5 results
|